CW5882 Weather Reports


time (UTC)temp
F
wind
direction
speed
knots
gust
knots
rain 1hr
in
rain 24hr
in
rain mn
in
humidity
%
barometer
mb
20260507211309 61 278 1.7 3.5 0.00 0.00 0.00 43 1010.8
20260507210251 60 316 0.9 2.6 0.00 0.00 0.00 44 1010.9
20260507205239 59 290 1.7 3.5 0.00 0.00 0.00 45 1011.3
20260507204224 58 112 0.0 1.7 0.00 0.00 0.00 45 1011.0
20260507203259 58 270 1.7 6.1 0.00 0.00 0.00 44 1011.0
20260507202236 58 344 0.9 1.7 0.00 0.00 0.00 45 1011.0
20260507201223 59 182 0.0 3.5 0.00 0.00 0.00 45 1011.2
20260507200307 60 213 0.9 1.7 0.00 0.00 0.00 43 1011.2
20260507195248 61 231 1.7 7.0 0.00 0.00 0.00 44 1011.0
20260507194234 60 277 1.7 2.6 0.00 0.00 0.00 45 1011.3
20260507193242 59 226 1.7 5.2 0.00 0.00 0.00 44 1011.4
20260507192259 59 349 0.9 5.2 0.00 0.00 0.00 46 1011.4
20260507191237 61 289 3.5 6.1 0.00 0.00 0.00 45 1011.3
20260507190222 61 342 1.7 3.5 0.00 0.00 0.00 46 1011.5
20260507185305 62 338 2.6 7.8 0.00 0.00 0.00 43 1011.4
20260507184310 60 330 2.6 3.5 0.00 0.00 0.00 46 1011.5
20260507183237 57 275 0.9 2.6 0.00 0.00 0.00 49 1012.0
20260507182313 57 290 0.9 6.1 0.00 0.00 0.00 48 1012.0
20260507181259 57 347 0.9 2.6 0.00 0.00 0.00 50 1011.9
20260507180239 57 352 0.9 5.2 0.00 0.00 0.00 49 1012.1
20260507175226 57 291 0.9 2.6 0.00 0.00 0.00 50 1012.0
20260507174314 58 324 2.6 6.1 0.00 0.00 0.00 46 1012.1
20260507173249 58 283 1.7 3.5 0.00 0.00 0.00 48 1012.0
20260507172233 57 273 0.9 3.5 0.00 0.00 0.00 49 1012.5
20260507171221 58 293 0.0 1.7 0.00 0.00 0.00 50 1012.5
20260507170310 58 270 1.7 3.5 0.00 0.00 0.00 48 1012.6
20260507165329 56 326 0.0 0.9 0.00 0.00 0.00 53 1012.7
20260507164237 55 307 0.0 3.5 0.00 0.00 0.00 55 1012.6
20260507163318 55 14 1.7 5.2 0.00 0.00 0.00 51 1013.0
20260507162306 57 318 2.6 3.5 0.00 0.00 0.00 49 1012.9
20260507161248 55 270 0.0 1.7 0.00 0.00 0.00 53 1013.3
20260507160232 55 292 1.7 3.5 0.00 0.00 0.00 52 1013.3
20260507155311 56 348 1.7 3.5 0.00 0.00 0.00 51 1013.3
20260507154244 58 325 2.6 2.6 0.00 0.00 0.00 53 1013.4
20260507153251 55 150 0.9 3.5 0.00 0.00 0.00 51 1013.4
20260507152216 55 167 1.7 5.2 0.00 0.00 0.00 52 1013.5
20260507151301 54 330 0.0 2.6 0.00 0.00 0.00 58 1013.8
20260507150246 55 171 0.9 3.5 0.00 0.00 0.00 56 1013.9
20260507145217 53 289 0.0 2.6 0.00 0.00 0.00 59 1014.1
20260507144302 54 294 0.9 2.6 0.00 0.00 0.00 58 1014.2
20260507143247 55 231 0.0 0.9 0.00 0.00 0.00 59 1013.8
20260507142230 55 96 0.9 1.7 0.00 0.00 0.00 60 1014.4
20260507141316 54 303 0.9 5.2 0.00 0.00 0.00 61 1014.4
20260507140301 53 134 0.0 1.7 0.00 0.00 0.00 64 1014.6
20260507135246 52 133 1.7 2.6 0.00 0.00 0.00 67 1014.4
20260507134234 52 181 0.9 1.7 0.00 0.00 0.00 71 1014.7
20260507133216 51 181 0.9 2.6 0.00 0.01 0.00 70 1014.8
20260507132258 50 181 0.9 2.6 0.00 0.02 0.00 74 1014.7
20260507131258 49 181 0.9 2.6 0.00 0.02 0.00 74 1014.9
20260507130221 48 226 0.9 1.7 0.00 0.02 0.00 79 1015.1
20260507125322 48 227 0.9 1.7 0.00 0.02 0.00 79 1014.8
20260507124249 46 227 0.0 2.6 0.00 0.02 0.00 83 1014.3
20260507123235 45 0.0 0.9 0.00 0.03 0.00 87 1014.7
20260507122219 45 0.0 0.9 0.00 0.04 0.00 89 1014.8
20260507121302 44 333 0.0 0.9 0.00 0.05 0.00 89 1015.0
20260507120249 43 0.0 0.0 0.00 0.05 0.00 90 1015.1
20260507115237 42 0.0 0.0 0.00 0.06 0.00 91 1014.9
20260507114220 40 0.0 0.0 0.00 0.06 0.00 94 1015.0
20260507113304 39 0.0 0.0 0.00 0.06 0.00 95 1015.1
20260507112242 37 0.0 0.0 0.00 0.06 0.00 98 1014.6
20260507111230 37 0.0 0.0 0.00 0.07 0.00 100 1014.4
20260507110318 36 0.0 0.0 0.00 0.09 0.00 100 1014.8
20260507105256 36 0.0 0.0 0.00 0.11 0.00 100 1014.7
20260507104241 36 0.0 0.0 0.00 0.13 0.00 100 1014.4
20260507103244 35 0.0 0.0 0.00 0.15 0.00 100 1014.1
20260507102310 35 0.0 0.0 0.00 0.18 0.00 100 1014.3
20260507101315 36 0.0 0.0 0.00 0.20 0.00 100 1014.2
20260507100230 35 0.0 0.0 0.00 0.21 0.00 99 1014.3
20260507095217 35 0.0 0.0 0.00 0.23 0.00 99 1014.2
20260507094301 35 0.0 0.0 0.00 0.26 0.00 99 1014.0
20260507093245 35 0.0 0.0 0.00 0.29 0.00 98 1014.1
20260507092254 36 0.0 0.0 0.00 0.31 0.00 98 1014.2
20260507091239 36 0.0 0.0 0.00 0.33 0.00 98 1014.4
20260507090302 37 0.0 0.0 0.00 0.36 0.00 98 1014.1
20260507085236 37 0.0 0.0 0.00 0.38 0.00 97 1014.4
20260507084318 37 0.0 0.0 0.00 0.39 0.00 97 1014.4
20260507083253 38 0.0 0.0 0.00 0.41 0.00 97 1014.6
20260507082238 38 0.0 0.0 0.00 0.41 0.00 96 1014.1
20260507081219 38 0.0 0.0 0.00 0.41 0.00 96 1014.4
20260507080322 38 0.0 0.0 0.00 0.41 0.00 95 1014.5
20260507075247 38 0.0 0.0 0.00 0.41 0.00 94 1014.3
20260507074229 39 0.0 0.0 0.00 0.41 0.00 93 1014.5
20260507073317 39 0.0 0.0 0.00 0.41 0.00 92 1014.5
20260507072306 40 0.0 0.0 0.00 0.41 0.00 90 1014.3
20260507071253 41 0.0 0.0 0.00 0.42 0.00 88 1014.4
20260507070237 41 0.0 0.0 0.00 0.43 0.00 88 1014.3
20260507065219 41 0.0 0.0 0.00 0.44 0.00 86 1014.4
20260507064302 42 0.0 0.0 0.00 0.45 0.00 85 1014.7
20260507063243 43 0.0 0.0 0.00 0.46 0.00 83 1014.9
20260507062230 43 0.0 0.0 0.00 0.47 0.00 81 1014.1
20260507061315 44 0.0 0.0 0.00 0.48 0.00 82 1014.7
20260507060302 44 0.0 0.0 0.00 0.49 0.00 82 1014.7
20260507055241 44 0.0 0.0 0.00 0.49 0.00 83 1014.8
20260507054230 45 0.0 0.0 0.00 0.50 0.00 80 1015.0
20260507053317 45 0.0 0.0 0.00 0.52 0.00 79 1015.2
20260507052251 45 0.0 0.0 0.00 0.53 0.00 79 1015.4
20260507051226 45 0.0 0.0 0.00 0.54 0.00 78 1015.2
20260507050315 46 0.0 0.0 0.00 0.54 0.00 78 1015.0
20260507045252 46 0.0 0.0 0.00 0.54 0.00 77 1015.2
20260507044239 46 0.0 0.0 0.00 0.54 0.00 77 1015.1
20260507043223 46 0.0 0.0 0.00 0.54 0.00 74 1015.1
20260507042257 46 0.0 0.9 0.00 0.54 0.00 75 1015.0
20260507041245 46 0.0 0.0 0.00 0.54 0.00 79 1015.1
20260507040223 46 0.0 0.0 0.00 0.54 0.00 77 1015.6
20260507035309 46 0.0 0.0 0.00 0.54 0.54 78 1015.1
20260507034254 46 0.0 0.0 0.00 0.54 0.54 76 1014.7
20260507033238 46 0.0 0.0 0.00 0.54 0.54 77 1015.0
20260507032226 46 0.0 0.0 0.00 0.54 0.54 74 1014.7
20260507031314 47 0.0 0.0 0.00 0.54 0.54 74 1015.0
20260507025229 47 0.0 0.0 0.00 0.54 0.54 71 1014.6
20260507024316 48 0.0 0.0 0.00 0.54 0.54 70 1014.7
20260507023258 48 0.0 0.0 0.00 0.54 0.54 69 1014.5
20260507022238 48 0.0 0.0 0.00 0.54 0.54 70 1014.6
20260507021247 48 0.0 0.0 0.00 0.54 0.54 68 1014.5
20260507020309 48 0.0 0.9 0.00 0.54 0.54 67 1014.0
20260507015245 48 324 0.0 0.9 0.00 0.54 0.54 66 1013.8
20260507014224 48 323 0.9 1.7 0.00 0.54 0.54 64 1014.1
20260507013312 49 0.0 0.9 0.00 0.54 0.54 64 1014.0
20260507012314 49 0.0 0.9 0.00 0.54 0.54 64 1013.9
20260507011234 49 331 0.9 1.7 0.00 0.54 0.54 65 1014.3
20260507010221 50 333 0.0 0.9 0.00 0.54 0.54 68 1014.2
20260507005309 50 0.0 0.9 0.00 0.54 0.54 67 1014.6
20260507004256 50 329 0.9 1.7 0.00 0.54 0.54 67 1014.6
20260507003234 50 0.0 0.0 0.00 0.54 0.54 69 1014.2
20260507002306 50 334 0.0 1.7 0.00 0.54 0.54 67 1014.3
20260507001313 51 336 0.0 0.9 0.00 0.54 0.54 67 1014.2
20260507000240 51 6 0.0 0.9 0.00 0.54 0.54 68 1014.2
20260506235221 51 0.0 1.7 0.00 0.54 0.54 67 1014.2
20260506234309 51 318 0.0 2.6 0.00 0.54 0.54 67 1013.9
20260506233314 52 231 0.9 0.9 0.00 0.54 0.54 66 1013.9
20260506232235 52 246 0.0 1.7 0.00 0.54 0.54 68 1013.5
20260506231241 52 41 0.0 2.6 0.00 0.54 0.54 69 1013.3
20260506230330 52 331 0.9 1.7 0.00 0.54 0.54 69 1013.3
20260506225250 53 338 0.9 1.7 0.00 0.54 0.54 72 1012.7
20260506224237 53 323 0.9 1.7 0.00 0.54 0.54 71 1012.9
20260506223302 54 0.0 1.7 0.00 0.54 0.54 73 1013.1
20260506222301 53 236 0.0 0.9 0.00 0.54 0.54 73 1013.0
20260506221300 53 312 0.9 0.9 0.00 0.54 0.54 72 1012.6
20260506220223 53 337 0.0 0.9 0.00 0.54 0.54 73 1012.6
20260506215332 53 336 0.0 1.7 0.00 0.56 0.54 74 1012.7
20260506214319 53 324 0.0 1.7 0.00 0.56 0.54 77 1012.7
20260506213302 53 343 0.9 3.5 0.00 0.56 0.54 78 1012.6
20260506212229 53 326 0.9 2.6 0.00 0.56 0.54 77 1012.4